Weather History for Sisseton, SD

Change the Weather History Date:

Thursday, December 19, 2013

  Actual Average Record
Temperature  
Mean Temperature -15 °C -9 °C  
Max Temperature -11 °C -4 °C 10 °C (1979)
Min Temperature -19 °C -14 °C -34 °C (1983)
Degree Days  
Heating Degree Days 60 49  
Month to date heating degree days 1035 882  
Since 1 July heating degree days 2867 2733  
Cooling Degree Days 0 0  
Month to date cooling degree days 0 0  
Year to date cooling degree days 625 527  
Moisture  
Dew Point -20 °C    
Average Humidity 80    
Maximum Humidity 87    
Minimum Humidity 72    
Precipitation  
Precipitation 4.06 mm 0.25 mm 1.68 mm (1951)
Month to date precipitation 0.84 0.24  
Year to date precipitation 28.27 22.18  
Snow  
Snow 0.00 cm - - ()
Month to date snowfall 5.7  
Since 1 July snowfall 6.7  
Snow Depth 2.54 cm    
Sea Level Pressure  
Sea Level Pressure 1024 hPa    
Wind  
Wind Speed 30 km/h (North)    
Max Wind Speed 47 km/h    
Max Gust Speed 56 km/h    
T = Trace of Precipitation, MM = Missing Value Source: NWS Daily Summary

Daily Weather History Graph

Daily Weather History Graph

Search for Another Location

Airport:

Trip Planner

Search our weather history database for the weather conditions in past years. The results will help you decide how hot, cold, wet, or windy it might be!

Date:

Astronomy

Dec. 19, 2013 Rise Set
Actual Time 8:04 AM CST 4:45 PM CST
Civil Twilight 7:30 AM CST 5:20 PM CST
Nautical Twilight 6:52 AM CST 5:58 PM CST
Astronomical Twilight 6:16 AM CST 6:34 PM CST
Moon 7:19 PM CST (12/19) 9:18 AM CST (12/19)
Length of Visible Light 9h 49m
Length of Day
8h 41m
Waning Gibbous, 95% of the Moon is Illuminated
Dec 19
Waning Gibbous
Dec 25
Last Quarter
Jan 1
New
Jan 7
First Quarter
Jan 15
Full

Hourly Weather History & Observations

Time (CST) Temp. Windchill Dew Point Humidity Pressure Visibility Wind Dir Wind Speed Gust Speed Precip Events Conditions
12:56 AM -12.2 °C -23.8 °C -15.6 °C 76% 1017.2 hPa - North 40.7 km/h / 11.3 m/s 51.9 km/h / 14.4 m/s N/A   Unknown
1:56 AM -13.9 °C -25.1 °C -16.7 °C 80% 1018.1 hPa - NNE 33.3 km/h / 9.3 m/s 42.6 km/h / 11.8 m/s N/A   Unknown
2:56 AM -15.6 °C -28.5 °C -18.9 °C 76% 1019.4 hPa - North 42.6 km/h / 11.8 m/s 51.9 km/h / 14.4 m/s N/A   Unknown
3:56 AM -16.7 °C -29.5 °C -20.0 °C 76% 1020.8 hPa - North 38.9 km/h / 10.8 m/s - N/A   Unknown
4:56 AM -17.8 °C -31.3 °C -20.6 °C 79% 1021.2 hPa - NNE 40.7 km/h / 11.3 m/s 48.2 km/h / 13.4 m/s N/A   Unknown
5:56 AM -18.3 °C -31.4 °C -21.7 °C 75% 1021.5 hPa - NNE 37.0 km/h / 10.3 m/s 46.3 km/h / 12.9 m/s N/A   Unknown
6:56 AM -18.3 °C -30.6 °C -21.1 °C 79% 1022.0 hPa - North 31.5 km/h / 8.7 m/s - N/A   Unknown
7:56 AM -18.9 °C -31.0 °C -21.7 °C 79% 1022.8 hPa - North 29.6 km/h / 8.2 m/s - N/A   Unknown
8:56 AM -18.9 °C -30.7 °C -21.7 °C 79% 1023.9 hPa - North 27.8 km/h / 7.7 m/s - N/A   Unknown
9:56 AM -18.3 °C -29.6 °C -21.1 °C 79% 1025.1 hPa - North 25.9 km/h / 7.2 m/s - N/A   Unknown
10:56 AM -17.8 °C -28.9 °C -20.6 °C 79% 1025.4 hPa - NNE 25.9 km/h / 7.2 m/s - N/A   Unknown
11:56 AM -17.2 °C -28.2 °C -20.0 °C 79% 1024.6 hPa - North 25.9 km/h / 7.2 m/s - N/A   Unknown
12:56 PM -17.2 °C -27.8 °C -20.0 °C 79% 1024.9 hPa - North 24.1 km/h / 6.7 m/s - N/A   Unknown
1:56 PM -17.8 °C -29.6 °C -20.6 °C 79% 1025.0 hPa - NNE 29.6 km/h / 8.2 m/s - N/A   Unknown
2:56 PM -17.8 °C -30.2 °C -20.6 °C 79% 1024.7 hPa - North 33.3 km/h / 9.3 m/s - N/A   Unknown
3:56 PM -17.8 °C -29.9 °C -21.1 °C 76% 1024.5 hPa - North 31.5 km/h / 8.7 m/s - N/A   Unknown
4:56 PM -18.3 °C -30.9 °C -21.1 °C 79% 1025.7 hPa - North 33.3 km/h / 9.3 m/s - 0.3 mm   Unknown
5:56 PM -18.3 °C -30.2 °C -21.1 °C 79% 1026.1 hPa - North 29.6 km/h / 8.2 m/s - 0.5 mm   Unknown
6:56 PM -18.3 °C -28.8 °C -20.6 °C 83% 1025.8 hPa - North 22.2 km/h / 6.2 m/s - 0.8 mm   Unknown
7:56 PM -17.8 °C -27.3 °C -20.0 °C 83% 1025.9 hPa - North 18.5 km/h / 5.1 m/s - 0.8 mm   Unknown
8:56 PM -17.8 °C -28.9 °C -20.0 °C 83% 1025.9 hPa - North 25.9 km/h / 7.2 m/s - 0.8 mm   Unknown
9:56 PM -17.2 °C -27.4 °C -20.0 °C 79% 1025.8 hPa - North 22.2 km/h / 6.2 m/s - 0.5 mm   Unknown
10:56 PM -17.2 °C -27.4 °C -19.4 °C 83% 1025.1 hPa - North 22.2 km/h / 6.2 m/s - 0.5 mm   Unknown
11:56 PM -16.7 °C -25.4 °C -19.4 °C 80% 1024.3 hPa - North 16.7 km/h / 4.6 m/s - N/A   Unknown